contact:dominique.lefevre@mio.osupytheas.fr, maurice.libes@osupytheas.fr, didier.mallarino@osupytheas.fr
Project:EMSO http://www.emso-fr.org/EMSO-France
Depth: 2436.0 m
Title:EMSO Ligure Ouest : Data MII capteur CSTAR
DateTime,Latitude,Longitude,Instrument_Serial,Reference_Counts,Signal_Counts,Corrected_Signal_raw_counts,Calculated_Beam_c_inverse_meters,Internal_thermistor_counts
DateTime,Latitude,Longitude,Instrument_Serial,Reference_Counts,Signal_Counts,Corrected_Signal_raw_counts,Calculated_Beam_c_inverse_meters,Internal_thermistor_counts
2020-12-03T00:00:24,42.805,6.029,CST-1368DR,5736,8024,15054,0.147,551
2020-12-03T00:03:25,42.805,6.029,CST-1368DR,5736,8024,15056,0.146,551
2020-12-03T00:06:27,42.805,6.029,CST-1368DR,5736,8024,15055,0.146,551
2020-12-03T00:09:28,42.805,6.029,CST-1368DR,5736,8024,15055,0.146,551
2020-12-03T00:12:30,42.805,6.029,CST-1368DR,5736,8024,15054,0.147,551
2020-12-03T00:15:32,42.805,6.029,CST-1368DR,5736,8024,15055,0.146,551
2020-12-03T00:18:33,42.805,6.029,CST-1368DR,5736,8024,15055,0.146,551
2020-12-03T00:21:35,42.805,6.029,CST-1368DR,5736,8024,15054,0.147,551
2020-12-03T00:24:36,42.805,6.029,CST-1368DR,5736,8023,15054,0.147,551
2020-12-03T00:27:38,42.805,6.029,CST-1368DR,5736,8024,15054,0.147,551
2020-12-03T00:30:40,42.805,6.029,CST-1368DR,5736,8024,15054,0.147,551
2020-12-03T00:33:41,42.805,6.029,CST-1368DR,5736,8024,15056,0.146,551
2020-12-03T00:36:43,42.805,6.029,CST-1368DR,5736,8023,15054,0.147,551
2020-12-03T00:39:44,42.805,6.029,CST-1368DR,5736,8022,15052,0.147,551
2020-12-03T00:42:46,42.805,6.029,CST-1368DR,5736,8024,15054,0.147,551
2020-12-03T00:45:47,42.805,6.029,CST-1368DR,5736,8023,15053,0.147,551
2020-12-03T00:48:49,42.805,6.029,CST-1368DR,5736,8023,15054,0.147,551
2020-12-03T00:51:51,42.805,6.029,CST-1368DR,5736,8024,15055,0.146,551
2020-12-03T00:54:52,42.805,6.029,CST-1368DR,5736,8024,15055,0.146,551
2020-12-03T00:57:54,42.805,6.029,CST-1368DR,5736,8023,15054,0.147,551
2020-12-03T01:00:55,42.805,6.029,CST-1368DR,5736,8024,15055,0.146,550
2020-12-03T01:03:57,42.805,6.029,CST-1368DR,5736,8024,15054,0.147,551
2020-12-03T01:06:59,42.805,6.029,CST-1368DR,5736,8023,15053,0.147,551
2020-12-03T01:10:00,42.805,6.029,CST-1368DR,5736,8024,15055,0.146,551
2020-12-03T01:13:02,42.805,6.029,CST-1368DR,5736,8023,15054,0.147,551
2020-12-03T01:16:03,42.805,6.029,CST-1368DR,5736,8023,15054,0.147,551
2020-12-03T01:19:05,42.805,6.029,CST-1368DR,5736,8024,15055,0.146,551
2020-12-03T01:22:06,42.805,6.029,CST-1368DR,5736,8023,15054,0.147,551
2020-12-03T01:25:08,42.805,6.029,CST-1368DR,5736,8024,15055,0.146,551
2020-12-03T01:28:10,42.805,6.029,CST-1368DR,5736,8024,15055,0.146,551
2020-12-03T01:31:11,42.805,6.029,CST-1368DR,5736,8024,15054,0.147,551
2020-12-03T01:34:13,42.805,6.029,CST-1368DR,5736,8024,15054,0.147,551
2020-12-03T01:37:14,42.805,6.029,CST-1368DR,5736,8023,15054,0.147,551
2020-12-03T01:40:16,42.805,6.029,CST-1368DR,5736,8023,15053,0.147,551
2020-12-03T01:43:17,42.805,6.029,CST-1368DR,5736,8024,15054,0.147,551
2020-12-03T01:46:19,42.805,6.029,CST-1368DR,5736,8024,15054,0.147,551
2020-12-03T01:49:21,42.805,6.029,CST-1368DR,5736,8024,15054,0.147,551
2020-12-03T01:52:22,42.805,6.029,CST-1368DR,5736,8024,15055,0.146,551
2020-12-03T01:55:24,42.805,6.029,CST-1368DR,5736,8023,15054,0.147,551
2020-12-03T01:58:25,42.805,6.029,CST-1368DR,5736,8023,15053,0.147,551
2020-12-03T02:01:27,42.805,6.029,CST-1368DR,5736,8023,15054,0.147,551
2020-12-03T02:04:29,42.805,6.029,CST-1368DR,5736,8023,15054,0.147,551
2020-12-03T02:07:30,42.805,6.029,CST-1368DR,5736,8024,15055,0.146,551
2020-12-03T02:10:32,42.805,6.029,CST-1368DR,5736,8024,15055,0.146,551
2020-12-03T02:13:33,42.805,6.029,CST-1368DR,5736,8021,15050,0.148,551
2020-12-03T02:16:35,42.805,6.029,CST-1368DR,5736,8024,15054,0.147,551
2020-12-03T02:19:36,42.805,6.029,CST-1368DR,5736,8024,15054,0.147,551
2020-12-03T02:22:38,42.805,6.029,CST-1368DR,5736,8024,15054,0.147,551
2020-12-03T02:25:40,42.805,6.029,CST-1368DR,5736,8023,15054,0.147,551
2020-12-03T02:28:41,42.805,6.029,CST-1368DR,5736,8023,15054,0.147,551
2020-12-03T02:31:43,42.805,6.029,CST-1368DR,5736,8024,15054,0.147,551
2020-12-03T02:34:44,42.805,6.029,CST-1368DR,5736,8023,15054,0.147,551
2020-12-03T02:37:46,42.805,6.029,CST-1368DR,5736,8023,15054,0.147,551
2020-12-03T02:40:47,42.805,6.029,CST-1368DR,5736,8023,15054,0.147,551
2020-12-03T02:43:49,42.805,6.029,CST-1368DR,5736,8023,15054,0.147,550
2020-12-03T02:46:51,42.805,6.029,CST-1368DR,5736,8023,15053,0.147,551
2020-12-03T02:49:52,42.805,6.029,CST-1368DR,5736,8022,15052,0.147,551
2020-12-03T02:52:54,42.805,6.029,CST-1368DR,5736,8023,15053,0.147,551
2020-12-03T02:55:55,42.805,6.029,CST-1368DR,5736,8023,15054,0.147,551
2020-12-03T02:58:57,42.805,6.029,CST-1368DR,5736,8023,15053,0.147,551
2020-12-03T03:01:59,42.805,6.029,CST-1368DR,5736,8023,15054,0.147,551
2020-12-03T03:05:00,42.805,6.029,CST-1368DR,5736,8023,15053,0.147,551
2020-12-03T03:08:02,42.805,6.029,CST-1368DR,5736,8023,15054,0.147,551
2020-12-03T03:11:03,42.805,6.029,CST-1368DR,5736,8023,15053,0.147,551
2020-12-03T03:14:05,42.805,6.029,CST-1368DR,5736,8023,15053,0.147,551
2020-12-03T03:17:06,42.805,6.029,CST-1368DR,5736,8024,15054,0.147,551
2020-12-03T03:20:08,42.805,6.029,CST-1368DR,5736,8023,15054,0.147,551
2020-12-03T03:23:10,42.805,6.029,CST-1368DR,5736,8023,15054,0.147,551
2020-12-03T03:26:11,42.805,6.029,CST-1368DR,5736,8023,15053,0.147,551
2020-12-03T03:29:13,42.805,6.029,CST-1368DR,5736,8023,15054,0.147,551
2020-12-03T03:32:14,42.805,6.029,CST-1368DR,5736,8023,15054,0.147,551
2020-12-03T03:35:16,42.805,6.029,CST-1368DR,5736,8023,15054,0.147,551
2020-12-03T03:38:17,42.805,6.029,CST-1368DR,5736,8023,15054,0.147,551
2020-12-03T03:41:19,42.805,6.029,CST-1368DR,5736,8023,15054,0.147,551
2020-12-03T03:44:21,42.805,6.029,CST-1368DR,5736,8023,15054,0.147,551
2020-12-03T03:47:22,42.805,6.029,CST-1368DR,5735,8022,15054,0.147,551
2020-12-03T03:50:24,42.805,6.029,CST-1368DR,5735,8024,15057,0.146,551
2020-12-03T03:53:25,42.805,6.029,CST-1368DR,5735,8023,15056,0.146,551
2020-12-03T03:56:27,42.805,6.029,CST-1368DR,5736,8023,15054,0.147,551
2020-12-03T03:59:29,42.805,6.029,CST-1368DR,5735,8024,15057,0.146,551
2020-12-03T04:02:30,42.805,6.029,CST-1368DR,5735,8023,15055,0.146,551
2020-12-03T04:05:32,42.805,6.029,CST-1368DR,5735,8023,15056,0.146,551
2020-12-03T04:08:33,42.805,6.029,CST-1368DR,5735,8022,15055,0.146,551
2020-12-03T04:11:35,42.805,6.029,CST-1368DR,5736,8023,15054,0.147,551
2020-12-03T04:14:36,42.805,6.029,CST-1368DR,5736,8024,15055,0.146,551
2020-12-03T04:17:38,42.805,6.029,CST-1368DR,5736,8023,15053,0.147,551
2020-12-03T04:20:40,42.805,6.029,CST-1368DR,5736,8023,15054,0.147,551
2020-12-03T04:23:41,42.805,6.029,CST-1368DR,5735,8023,15056,0.146,551
2020-12-03T04:26:43,42.805,6.029,CST-1368DR,5735,8023,15056,0.146,551
2020-12-03T04:29:44,42.805,6.029,CST-1368DR,5735,8023,15056,0.146,551
2020-12-03T04:32:46,42.805,6.029,CST-1368DR,5735,8023,15056,0.146,551
2020-12-03T04:35:48,42.805,6.029,CST-1368DR,5735,8023,15056,0.146,551
2020-12-03T04:38:49,42.805,6.029,CST-1368DR,5735,8023,15056,0.146,551
2020-12-03T04:41:51,42.805,6.029,CST-1368DR,5735,8023,15056,0.146,551
2020-12-03T04:44:52,42.805,6.029,CST-1368DR,5735,8023,15056,0.146,551
2020-12-03T04:47:54,42.805,6.029,CST-1368DR,5735,8024,15057,0.146,551
2020-12-03T04:50:55,42.805,6.029,CST-1368DR,5735,8023,15056,0.146,551
2020-12-03T04:53:57,42.805,6.029,CST-1368DR,5735,8023,15056,0.146,551
2020-12-03T04:56:59,42.805,6.029,CST-1368DR,5735,8023,15056,0.146,551
2020-12-03T05:00:00,42.805,6.029,CST-1368DR,5735,8024,15057,0.146,551
2020-12-03T05:03:02,42.805,6.029,CST-1368DR,5735,8022,15055,0.146,551
2020-12-03T05:06:03,42.805,6.029,CST-1368DR,5735,8023,15056,0.146,551
2020-12-03T05:09:05,42.805,6.029,CST-1368DR,5735,8024,15057,0.146,551
2020-12-03T05:12:06,42.805,6.029,CST-1368DR,5735,8024,15058,0.146,551
2020-12-03T05:15:08,42.805,6.029,CST-1368DR,5735,8024,15057,0.146,551
2020-12-03T05:18:10,42.805,6.029,CST-1368DR,5735,8024,15057,0.146,551
2020-12-03T05:21:11,42.805,6.029,CST-1368DR,5735,8023,15056,0.146,551
2020-12-03T05:24:13,42.805,6.029,CST-1368DR,5735,8022,15055,0.146,551
2020-12-03T05:27:14,42.805,6.029,CST-1368DR,5735,8024,15057,0.146,551
2020-12-03T05:30:16,42.805,6.029,CST-1368DR,5735,8024,15057,0.146,551
2020-12-03T05:33:18,42.805,6.029,CST-1368DR,5735,8023,15056,0.146,551
2020-12-03T05:36:19,42.805,6.029,CST-1368DR,5735,8023,15056,0.146,551
2020-12-03T05:39:21,42.805,6.029,CST-1368DR,5735,8023,15055,0.146,551
2020-12-03T05:42:22,42.805,6.029,CST-1368DR,5735,8023,15056,0.146,551
2020-12-03T05:45:24,42.805,6.029,CST-1368DR,5735,8023,15056,0.146,551
2020-12-03T05:48:25,42.805,6.029,CST-1368DR,5735,8024,15057,0.146,551
2020-12-03T05:51:27,42.805,6.029,CST-1368DR,5735,8024,15057,0.146,551
2020-12-03T05:54:29,42.805,6.029,CST-1368DR,5735,8024,15057,0.146,551
2020-12-03T05:57:30,42.805,6.029,CST-1368DR,5735,8024,15057,0.146,551
2020-12-03T06:00:32,42.805,6.029,CST-1368DR,5735,8024,15057,0.146,551
2020-12-03T06:03:33,42.805,6.029,CST-1368DR,5735,8024,15057,0.146,551
2020-12-03T06:06:35,42.805,6.029,CST-1368DR,5735,8023,15056,0.146,551
2020-12-03T06:09:36,42.805,6.029,CST-1368DR,5735,8024,15057,0.146,551
2020-12-03T06:12:38,42.805,6.029,CST-1368DR,5735,8024,15057,0.146,551
2020-12-03T06:15:40,42.805,6.029,CST-1368DR,5735,8023,15056,0.146,551
2020-12-03T06:18:41,42.805,6.029,CST-1368DR,5735,8023,15056,0.146,551
2020-12-03T06:21:43,42.805,6.029,CST-1368DR,5735,8024,15058,0.146,551
2020-12-03T06:24:44,42.805,6.029,CST-1368DR,5735,8023,15056,0.146,551
2020-12-03T06:27:46,42.805,6.029,CST-1368DR,5735,8024,15058,0.146,551
2020-12-03T06:30:48,42.805,6.029,CST-1368DR,5735,8024,15057,0.146,551
2020-12-03T06:33:49,42.805,6.029,CST-1368DR,5735,8024,15057,0.146,551
2020-12-03T06:36:51,42.805,6.029,CST-1368DR,5735,8023,15055,0.146,551
2020-12-03T06:39:52,42.805,6.029,CST-1368DR,5735,8024,15057,0.146,551
2020-12-03T06:42:54,42.805,6.029,CST-1368DR,5735,8023,15056,0.146,551
2020-12-03T06:45:55,42.805,6.029,CST-1368DR,5735,8024,15057,0.146,551
2020-12-03T06:48:57,42.805,6.029,CST-1368DR,5735,8023,15056,0.146,551
2020-12-03T06:51:59,42.805,6.029,CST-1368DR,5735,8023,15056,0.146,551
2020-12-03T06:55:00,42.805,6.029,CST-1368DR,5735,8024,15057,0.146,551
2020-12-03T06:58:02,42.805,6.029,CST-1368DR,5735,8023,15055,0.146,551
2020-12-03T07:01:03,42.805,6.029,CST-1368DR,5735,8024,15058,0.146,551
2020-12-03T07:04:05,42.805,6.029,CST-1368DR,5735,8024,15057,0.146,551
2020-12-03T07:07:07,42.805,6.029,CST-1368DR,5735,8024,15057,0.146,551
2020-12-03T07:10:08,42.805,6.029,CST-1368DR,5735,8024,15057,0.146,551
2020-12-03T07:13:10,42.805,6.029,CST-1368DR,5735,8024,15057,0.146,551
2020-12-03T07:16:11,42.805,6.029,CST-1368DR,5735,8023,15055,0.146,551
2020-12-03T07:19:13,42.805,6.029,CST-1368DR,5735,8023,15056,0.146,551
2020-12-03T07:22:14,42.805,6.029,CST-1368DR,5735,8024,15057,0.146,551
2020-12-03T07:25:16,42.805,6.029,CST-1368DR,5735,8024,15057,0.146,551
2020-12-03T07:28:18,42.805,6.029,CST-1368DR,5735,8024,15057,0.146,551
2020-12-03T07:31:19,42.805,6.029,CST-1368DR,5735,8024,15057,0.146,551
2020-12-03T07:34:21,42.805,6.029,CST-1368DR,5735,8023,15056,0.146,551
2020-12-03T07:37:22,42.805,6.029,CST-1368DR,5735,8024,15057,0.146,551
2020-12-03T07:40:24,42.805,6.029,CST-1368DR,5735,8023,15056,0.146,551
2020-12-03T07:43:25,42.805,6.029,CST-1368DR,5735,8024,15057,0.146,551
2020-12-03T07:46:27,42.805,6.029,CST-1368DR,5735,8023,15056,0.146,551
2020-12-03T07:49:29,42.805,6.029,CST-1368DR,5735,8023,15056,0.146,551
2020-12-03T07:52:30,42.805,6.029,CST-1368DR,5735,8024,15057,0.146,551
2020-12-03T07:55:32,42.805,6.029,CST-1368DR,5735,8024,15057,0.146,551
2020-12-03T07:58:33,42.805,6.029,CST-1368DR,5735,8024,15057,0.146,551
2020-12-03T08:01:35,42.805,6.029,CST-1368DR,5735,8024,15057,0.146,551
2020-12-03T08:04:37,42.805,6.029,CST-1368DR,5735,8024,15057,0.146,551
2020-12-03T08:07:38,42.805,6.029,CST-1368DR,5735,8024,15057,0.146,551
2020-12-03T08:10:40,42.805,6.029,CST-1368DR,5735,8024,15057,0.146,551
2020-12-03T08:13:41,42.805,6.029,CST-1368DR,5735,8024,15057,0.146,551
2020-12-03T08:16:43,42.805,6.029,CST-1368DR,5735,8024,15057,0.146,551
2020-12-03T08:19:44,42.805,6.029,CST-1368DR,5735,8024,15057,0.146,551
2020-12-03T08:22:46,42.805,6.029,CST-1368DR,5735,8023,15056,0.146,551
2020-12-03T08:25:48,42.805,6.029,CST-1368DR,5735,8024,15058,0.146,551
2020-12-03T08:28:49,42.805,6.029,CST-1368DR,5735,8024,15058,0.146,551
2020-12-03T08:31:51,42.805,6.029,CST-1368DR,5735,8024,15057,0.146,551
2020-12-03T08:34:52,42.805,6.029,CST-1368DR,5735,8024,15057,0.146,551
2020-12-03T08:37:54,42.805,6.029,CST-1368DR,5735,8023,15056,0.146,551
2020-12-03T08:40:56,42.805,6.029,CST-1368DR,5735,8024,15057,0.146,551
2020-12-03T08:43:57,42.805,6.029,CST-1368DR,5735,8024,15057,0.146,551
2020-12-03T08:46:59,42.805,6.029,CST-1368DR,5735,8024,15058,0.146,551
2020-12-03T08:50:00,42.805,6.029,CST-1368DR,5735,8024,15057,0.146,551
2020-12-03T08:53:02,42.805,6.029,CST-1368DR,5735,8024,15058,0.146,551
2020-12-03T08:56:03,42.805,6.029,CST-1368DR,5735,8023,15056,0.146,551
2020-12-03T08:59:05,42.805,6.029,CST-1368DR,5735,8024,15057,0.146,551
2020-12-03T09:02:07,42.805,6.029,CST-1368DR,5735,8024,15057,0.146,551
2020-12-03T09:05:08,42.805,6.029,CST-1368DR,5735,8024,15058,0.146,551
2020-12-03T09:08:10,42.805,6.029,CST-1368DR,5735,8024,15058,0.146,551
2020-12-03T09:11:11,42.805,6.029,CST-1368DR,5735,8024,15057,0.146,551
2020-12-03T09:14:13,42.805,6.029,CST-1368DR,5735,8024,15057,0.146,551
2020-12-03T09:17:15,42.805,6.029,CST-1368DR,5735,8023,15056,0.146,551
2020-12-03T09:20:16,42.805,6.029,CST-1368DR,5735,8023,15056,0.146,551
2020-12-03T09:23:18,42.805,6.029,CST-1368DR,5735,8024,15057,0.146,551
2020-12-03T09:26:19,42.805,6.029,CST-1368DR,5735,8023,15056,0.146,551
2020-12-03T09:29:21,42.805,6.029,CST-1368DR,5735,8024,15058,0.146,551
2020-12-03T09:32:22,42.805,6.029,CST-1368DR,5735,8024,15057,0.146,551
2020-12-03T09:35:24,42.805,6.029,CST-1368DR,5735,8024,15058,0.146,551
2020-12-03T09:38:26,42.805,6.029,CST-1368DR,5735,8023,15056,0.146,551
2020-12-03T09:41:27,42.805,6.029,CST-1368DR,5735,8023,15055,0.146,551
2020-12-03T09:44:29,42.805,6.029,CST-1368DR,5735,8023,15056,0.146,551
2020-12-03T09:47:30,42.805,6.029,CST-1368DR,5735,8024,15057,0.146,551
2020-12-03T09:50:32,42.805,6.029,CST-1368DR,5735,8024,15057,0.146,551
2020-12-03T09:53:33,42.805,6.029,CST-1368DR,5735,8024,15058,0.146,550
2020-12-03T09:56:35,42.805,6.029,CST-1368DR,5735,8024,15058,0.146,550
2020-12-03T09:59:37,42.805,6.029,CST-1368DR,5735,8024,15057,0.146,551
2020-12-03T10:02:38,42.805,6.029,CST-1368DR,5735,8024,15057,0.146,551
2020-12-03T10:05:40,42.805,6.029,CST-1368DR,5735,8024,15057,0.146,551
2020-12-03T10:08:41,42.805,6.029,CST-1368DR,5735,8024,15057,0.146,551
2020-12-03T10:11:43,42.805,6.029,CST-1368DR,5735,8023,15056,0.146,551
2020-12-03T10:14:45,42.805,6.029,CST-1368DR,5735,8024,15057,0.146,551
2020-12-03T10:17:46,42.805,6.029,CST-1368DR,5735,8023,15056,0.146,551
2020-12-03T10:20:48,42.805,6.029,CST-1368DR,5735,8023,15056,0.146,551
2020-12-03T10:23:49,42.805,6.029,CST-1368DR,5735,8024,15057,0.146,551
2020-12-03T10:26:51,42.805,6.029,CST-1368DR,5735,8024,15057,0.146,551
2020-12-03T10:29:52,42.805,6.029,CST-1368DR,5735,8024,15058,0.146,551
2020-12-03T10:32:54,42.805,6.029,CST-1368DR,5735,8024,15057,0.146,551
2020-12-03T10:35:56,42.805,6.029,CST-1368DR,5735,8023,15056,0.146,551
2020-12-03T10:38:57,42.805,6.029,CST-1368DR,5735,8023,15056,0.146,551
2020-12-03T10:41:59,42.805,6.029,CST-1368DR,5735,8019,15048,0.148,551
2020-12-03T10:45:00,42.805,6.029,CST-1368DR,5735,8023,15056,0.146,551
2020-12-03T10:48:02,42.805,6.029,CST-1368DR,5735,8023,15055,0.146,551
2020-12-03T10:51:04,42.805,6.029,CST-1368DR,5735,8024,15057,0.146,551
2020-12-03T10:54:05,42.805,6.029,CST-1368DR,5735,8023,15056,0.146,551
2020-12-03T10:57:07,42.805,6.029,CST-1368DR,5735,8023,15056,0.146,551
2020-12-03T11:00:08,42.805,6.029,CST-1368DR,5735,8023,15056,0.146,551
2020-12-03T11:03:10,42.805,6.029,CST-1368DR,5735,8023,15056,0.146,551
2020-12-03T11:06:11,42.805,6.029,CST-1368DR,5735,8024,15057,0.146,551
2020-12-03T11:09:13,42.805,6.029,CST-1368DR,5735,8023,15056,0.146,551
2020-12-03T11:12:15,42.805,6.029,CST-1368DR,5735,8023,15055,0.146,551
2020-12-03T11:15:16,42.805,6.029,CST-1368DR,5735,8023,15056,0.146,551
2020-12-03T11:18:18,42.805,6.029,CST-1368DR,5735,8023,15056,0.146,551
2020-12-03T11:21:19,42.805,6.029,CST-1368DR,5735,8023,15056,0.146,551
2020-12-03T11:24:21,42.805,6.029,CST-1368DR,5735,8022,15055,0.146,551
2020-12-03T11:27:22,42.805,6.029,CST-1368DR,5735,8023,15056,0.146,551
2020-12-03T11:30:24,42.805,6.029,CST-1368DR,5735,8023,15056,0.146,551
2020-12-03T11:33:26,42.805,6.029,CST-1368DR,5735,8023,15055,0.146,551
2020-12-03T11:36:27,42.805,6.029,CST-1368DR,5735,8023,15056,0.146,551
2020-12-03T11:39:29,42.805,6.029,CST-1368DR,5735,8023,15055,0.146,551
2020-12-03T11:42:30,42.805,6.029,CST-1368DR,5735,8021,15052,0.147,551
2020-12-03T11:45:32,42.805,6.029,CST-1368DR,5735,8022,15055,0.146,551
2020-12-03T11:48:34,42.805,6.029,CST-1368DR,5735,8021,15052,0.147,551
2020-12-03T11:51:35,42.805,6.029,CST-1368DR,5735,8022,15053,0.147,551
2020-12-03T11:54:37,42.805,6.029,CST-1368DR,5735,8023,15056,0.146,551
2020-12-03T11:57:38,42.805,6.029,CST-1368DR,5735,8023,15056,0.146,551
2020-12-03T12:00:40,42.805,6.029,CST-1368DR,5735,8023,15056,0.146,551
2020-12-03T12:03:41,42.805,6.029,CST-1368DR,5735,8023,15055,0.146,551
2020-12-03T12:06:43,42.805,6.029,CST-1368DR,5735,8023,15056,0.146,551
2020-12-03T12:09:45,42.805,6.029,CST-1368DR,5735,8023,15056,0.146,551
2020-12-03T12:12:46,42.805,6.029,CST-1368DR,5735,8022,15054,0.147,551
2020-12-03T12:15:48,42.805,6.029,CST-1368DR,5735,8022,15055,0.146,550
2020-12-03T12:18:49,42.805,6.029,CST-1368DR,5735,8022,15055,0.146,551
2020-12-03T12:21:51,42.805,6.029,CST-1368DR,5735,8022,15054,0.147,551
2020-12-03T12:24:52,42.805,6.029,CST-1368DR,5735,8023,15056,0.146,551
2020-12-03T12:27:54,42.805,6.029,CST-1368DR,5735,8022,15055,0.146,551
2020-12-03T12:30:56,42.805,6.029,CST-1368DR,5735,8023,15056,0.146,551
2020-12-03T12:33:57,42.805,6.029,CST-1368DR,5734,8022,15057,0.146,551
2020-12-03T12:36:59,42.805,6.029,CST-1368DR,5734,8022,15057,0.146,551
2020-12-03T12:40:00,42.805,6.029,CST-1368DR,5735,8022,15053,0.147,551
2020-12-03T12:43:02,42.805,6.029,CST-1368DR,5734,8022,15057,0.146,551
2020-12-03T12:46:04,42.805,6.029,CST-1368DR,5734,8022,15057,0.146,551
2020-12-03T12:49:05,42.805,6.029,CST-1368DR,5734,8021,15055,0.146,551
2020-12-03T12:52:07,42.805,6.029,CST-1368DR,5735,8022,15055,0.146,551
2020-12-03T12:55:08,42.805,6.029,CST-1368DR,5734,8022,15056,0.146,551
2020-12-03T12:58:10,42.805,6.029,CST-1368DR,5734,8022,15056,0.146,551
2020-12-03T13:01:11,42.805,6.029,CST-1368DR,5734,8021,15055,0.146,551
2020-12-03T13:04:13,42.805,6.029,CST-1368DR,5734,8011,15036,0.151,551
2020-12-03T13:07:15,42.805,6.029,CST-1368DR,5734,8021,15055,0.146,551
2020-12-03T13:10:16,42.805,6.029,CST-1368DR,5734,8021,15054,0.147,551
2020-12-03T13:13:18,42.805,6.029,CST-1368DR,5734,8020,15052,0.147,551
2020-12-03T13:16:19,42.805,6.029,CST-1368DR,5734,8021,15054,0.147,551
2020-12-03T13:19:21,42.805,6.029,CST-1368DR,5734,8021,15054,0.147,551
2020-12-03T13:22:23,42.805,6.029,CST-1368DR,5734,8021,15055,0.146,551
2020-12-03T13:25:24,42.805,6.029,CST-1368DR,5734,8021,15054,0.147,551
2020-12-03T13:28:26,42.805,6.029,CST-1368DR,5734,8021,15054,0.147,551
2020-12-03T13:31:27,42.805,6.029,CST-1368DR,5734,8021,15054,0.147,551
2020-12-03T13:34:29,42.805,6.029,CST-1368DR,5734,8021,15054,0.147,551
2020-12-03T13:37:30,42.805,6.029,CST-1368DR,5734,8021,15054,0.147,551
2020-12-03T13:40:32,42.805,6.029,CST-1368DR,5734,8021,15055,0.146,551
2020-12-03T13:43:34,42.805,6.029,CST-1368DR,5734,8020,15053,0.147,551
2020-12-03T13:46:35,42.805,6.029,CST-1368DR,5734,8020,15052,0.147,551
2020-12-03T13:49:37,42.805,6.029,CST-1368DR,5734,8020,15052,0.147,551
2020-12-03T13:52:38,42.805,6.029,CST-1368DR,5734,8021,15054,0.147,551
2020-12-03T13:55:40,42.805,6.029,CST-1368DR,5734,8020,15052,0.147,551
2020-12-03T13:58:42,42.805,6.029,CST-1368DR,5734,8021,15054,0.147,551
2020-12-03T14:01:43,42.805,6.029,CST-1368DR,5734,8021,15054,0.147,551
2020-12-03T14:04:45,42.805,6.029,CST-1368DR,5734,8021,15054,0.147,551
2020-12-03T14:07:46,42.805,6.029,CST-1368DR,5734,8020,15052,0.147,551
2020-12-03T14:10:48,42.805,6.029,CST-1368DR,5734,8021,15054,0.147,551
2020-12-03T14:13:49,42.805,6.029,CST-1368DR,5734,8021,15055,0.146,551
2020-12-03T14:16:51,42.805,6.029,CST-1368DR,5734,8020,15053,0.147,551
2020-12-03T14:19:53,42.805,6.029,CST-1368DR,5734,8020,15053,0.147,551
2020-12-03T14:22:54,42.805,6.029,CST-1368DR,5734,8021,15054,0.147,551
2020-12-03T14:25:56,42.805,6.029,CST-1368DR,5734,8020,15053,0.147,551
2020-12-03T14:28:57,42.805,6.029,CST-1368DR,5734,8021,15054,0.147,551
2020-12-03T14:31:59,42.805,6.029,CST-1368DR,5734,8020,15052,0.147,551
2020-12-03T14:35:00,42.805,6.029,CST-1368DR,5734,8018,15049,0.148,551
2020-12-03T14:38:02,42.805,6.029,CST-1368DR,5734,8020,15052,0.147,551
2020-12-03T14:41:04,42.805,6.029,CST-1368DR,5734,8019,15050,0.148,551
2020-12-03T14:44:05,42.805,6.029,CST-1368DR,5734,8020,15053,0.147,551
2020-12-03T14:47:07,42.805,6.029,CST-1368DR,5734,8020,15053,0.147,551
2020-12-03T14:50:08,42.805,6.029,CST-1368DR,5734,8021,15054,0.147,551
2020-12-03T14:53:10,42.805,6.029,CST-1368DR,5734,8020,15052,0.147,551
2020-12-03T14:56:12,42.805,6.029,CST-1368DR,5734,8021,15054,0.147,551
2020-12-03T14:59:13,42.805,6.029,CST-1368DR,5734,8020,15053,0.147,551
2020-12-03T15:02:15,42.805,6.029,CST-1368DR,5734,8019,15051,0.147,551
2020-12-03T15:05:16,42.805,6.029,CST-1368DR,5734,8019,15051,0.147,551
2020-12-03T15:08:18,42.805,6.029,CST-1368DR,5734,8020,15053,0.147,551
2020-12-03T15:11:19,42.805,6.029,CST-1368DR,5734,8020,15053,0.147,551
2020-12-03T15:14:21,42.805,6.029,CST-1368DR,5734,8020,15053,0.147,551
2020-12-03T15:17:23,42.805,6.029,CST-1368DR,5734,8019,15050,0.148,551
2020-12-03T15:20:24,42.805,6.029,CST-1368DR,5734,8021,15054,0.147,551
2020-12-03T15:23:26,42.805,6.029,CST-1368DR,5734,8020,15052,0.147,551
2020-12-03T15:26:27,42.805,6.029,CST-1368DR,5734,8021,15054,0.147,551
2020-12-03T15:29:29,42.805,6.029,CST-1368DR,5734,8020,15052,0.147,551
2020-12-03T15:32:30,42.805,6.029,CST-1368DR,5734,8020,15052,0.147,551
2020-12-03T15:35:32,42.805,6.029,CST-1368DR,5734,8020,15052,0.147,551
2020-12-03T15:38:34,42.805,6.029,CST-1368DR,5734,8020,15052,0.147,551
2020-12-03T15:41:35,42.805,6.029,CST-1368DR,5734,8020,15053,0.147,551
2020-12-03T15:44:37,42.805,6.029,CST-1368DR,5734,8020,15053,0.147,551
2020-12-03T15:47:38,42.805,6.029,CST-1368DR,5734,8021,15054,0.147,551
2020-12-03T15:50:40,42.805,6.029,CST-1368DR,5734,8021,15054,0.147,551
2020-12-03T15:53:42,42.805,6.029,CST-1368DR,5734,8021,15054,0.147,551
2020-12-03T15:56:43,42.805,6.029,CST-1368DR,5734,8020,15053,0.147,551
2020-12-03T15:59:45,42.805,6.029,CST-1368DR,5734,8020,15053,0.147,551
2020-12-03T16:02:46,42.805,6.029,CST-1368DR,5734,8020,15052,0.147,551
2020-12-03T16:05:48,42.805,6.029,CST-1368DR,5734,8020,15053,0.147,551
2020-12-03T16:08:49,42.805,6.029,CST-1368DR,5734,8020,15052,0.147,551
2020-12-03T16:11:51,42.805,6.029,CST-1368DR,5734,8020,15052,0.147,551
2020-12-03T16:14:53,42.805,6.029,CST-1368DR,5734,8020,15053,0.147,551
2020-12-03T16:17:54,42.805,6.029,CST-1368DR,5734,8020,15052,0.147,551
2020-12-03T16:20:56,42.805,6.029,CST-1368DR,5734,8021,15054,0.147,551
2020-12-03T16:23:57,42.805,6.029,CST-1368DR,5734,8018,15048,0.148,551
2020-12-03T16:26:59,42.805,6.029,CST-1368DR,5734,8020,15053,0.147,551
2020-12-03T16:30:01,42.805,6.029,CST-1368DR,5734,8020,15053,0.147,551
2020-12-03T16:33:02,42.805,6.029,CST-1368DR,5734,8021,15054,0.147,551
2020-12-03T16:36:04,42.805,6.029,CST-1368DR,5734,8021,15055,0.146,551
2020-12-03T16:39:05,42.805,6.029,CST-1368DR,5734,8020,15053,0.147,551
2020-12-03T16:42:07,42.805,6.029,CST-1368DR,5734,8020,15053,0.147,551
2020-12-03T16:45:08,42.805,6.029,CST-1368DR,5734,8020,15053,0.147,551
2020-12-03T16:48:10,42.805,6.029,CST-1368DR,5734,8020,15052,0.147,551
2020-12-03T16:51:12,42.805,6.029,CST-1368DR,5734,8020,15053,0.147,551